[[{"header":{"parameterUnit":"m.s-1","parameterCategory":1,"la1":30.2991,"la2":30.254,"lo1":-89.0895,"lo2":-89.0444,"dy":0.0017,"dx":0.0017,"nx":28,"ny":28,"refTime":"2024-02-29T09:00:00:Z","depth":0,"parameterNumber":2,"parameterNumberName":"U-component_of_WINDS"},"data":[0,0,0,0,0,0,0,0,0,0,0,0,0,0,0,0,0,0,0,0,0,0,0,0,0,0,0,0,0,0,0,0,0,0,0,0,0,0,0,0,0,0,0,0,0,0,0,0,0,0,0,0,0,0,0,0,0,0,1.0283,1.0284,0,1.0339,1.034,1.034,1.033,1.0329,1.0328,1.0327,1.0388,1.039,1.0393,0,0,0,0,0,0,0,0,0,0,0,0,0,1.0173,1.0175,1.0283,1.0284,1.0284,1.0339,1.034,1.034,1.033,1.0329,1.0327,1.0326,1.0387,1.039,1.0393,0,0,0,0,0,0,0,0,0,0,0,0,0,1.0224,1.0175,1.0283,1.0285,1.0286,1.0339,1.034,1.0341,1.033,1.0328,1.0327,1.0326,1.0386,1.039,1.0394,1.0448,0,0,1.0405,1.0407,0,0,0,0,0,0,0,0,1.0221,1.0228,1.0284,1.0285,1.0286,1.0326,1.0323,1.0377,1.033,1.0314,1.0327,1.0325,1.0369,1.0374,1.0388,1.0451,1.0454,1.0406,1.0408,1.041,1.0411,0,0,0,0,0,0,0,1.0217,1.0225,1.0305,1.0285,1.0287,1.0286,1.0291,1.0333,1.0349,1.0315,1.0314,1.0321,1.0369,1.0384,1.0389,1.0454,1.0406,1.0409,1.0412,1.0413,1.0568,1.057,0,0,0,0,0,0,1.0212,1.0222,1.0303,1.0307,1.0249,1.0289,1.0295,1.0315,1.0349,1.0352,1.0322,1.032,1.0378,1.0385,1.0391,1.0459,1.041,1.0413,1.0416,1.0566,1.0569,1.057,0,0,0,0,0,0,1.021,1.0219,1.0301,1.0265,1.0275,1.0292,1.0314,1.0317,1.0332,1.0354,1.0357,1.0334,1.0377,1.0386,1.0434,1.0461,1.0415,1.0419,1.0564,1.0567,1.057,1.0594,0,0,0,0,0,0,1.0207,1.0219,1.0238,1.0265,1.0277,1.0342,1.0316,1.0319,1.0338,1.0336,1.0366,1.037,1.0377,1.0429,1.0438,1.0465,1.0422,1.0562,1.0565,1.0569,1.0591,1.0597,1.0602,0,0,0,0,0,1.0203,1.0243,1.0239,1.0249,1.0301,1.0343,1.035,1.0356,1.034,1.0361,1.0376,1.0369,1.0456,1.0434,1.0444,1.0473,1.056,1.0564,1.0568,1.0588,1.0596,1.0602,0,0,0,0,0,0,1.0219,1.0246,1.0242,1.0292,1.0315,1.0341,1.0367,1.0363,1.0393,1.039,1.0397,1.0404,1.0454,1.0468,1.0443,1.0529,1.0506,1.0513,1.0518,1.0525,1.0531,1.0527,1.0425,0,0,0,0,0,1.0229,1.0259,1.0281,1.0323,1.0335,1.0349,1.0368,1.037,1.0395,1.0405,1.0423,1.0449,1.0483,1.0505,1.0537,1.0593,1.0601,1.0618,1.0624,1.0629,1.0634,1.0667,1.0676,1.0584,1.0584,1.0584,0,0,1.0248,1.0267,1.0285,1.0327,1.0345,1.0378,1.0357,1.0393,1.0418,1.0411,1.0458,1.0473,1.0502,1.0555,1.058,1.0569,1.0662,1.0634,1.0637,1.064,1.0672,1.0681,1.0689,1.0587,1.0586,1.0586,0,0,1.0301,1.0317,1.0355,1.0374,1.0402,1.0411,1.042,1.0447,1.0457,1.0504,1.05,1.0531,1.0588,1.061,1.0628,1.0692,1.0688,1.0703,1.0733,1.0766,1.0773,1.0779,1.0804,1.0812,1.0708,1.0708,1.0708,0,1.0322,1.037,1.0375,1.0411,1.0431,1.0425,1.0465,1.0484,1.0521,1.0536,1.0523,1.0596,1.0615,1.0674,1.069,1.0705,1.0717,1.0699,1.0771,1.0778,1.0784,1.0808,1.0817,1.071,1.071,1.071,1.0709,0,1.0396,1.043,1.0457,1.0493,1.0515,1.0553,1.0566,1.0588,1.059,1.0601,1.0651,1.0674,1.0712,1.0726,1.0728,1.0787,1.078,1.0769,1.0746,1.0794,1.0817,1.0826,1.0712,1.0712,1.0711,1.0711,0,0,1.046,1.0499,1.0509,1.0526,1.0557,1.0584,1.0623,1.0659,1.068,1.0706,1.074,1.079,1.0781,1.0802,1.0807,1.0835,1.0887,1.0821,1.0822,1.0834,1.0955,1.0964,1.0974,1.0884,1.0886,1.0887,1.0953,0,1.0517,1.0583,1.059,1.065,1.0683,1.068,1.0714,1.0738,1.0751,1.0782,1.0797,1.0832,1.0816,1.083,1.0857,1.0874,1.0911,1.087,1.0918,1.092,1.0911,1.0985,1.0994,1.1055,1.0962,1.0964,1.0965,0,1.0591,1.062,1.0684,1.0712,1.0726,1.0757,1.0792,1.0821,1.0849,1.0857,1.0881,1.0883,1.0926,1.0901,1.0961,1.0933,1.0954,1.0965,1.0968,1.0973,1.0945,1.0994,1.1074,1.1084,1.0978,1.0977,1.0976,0,1.0633,1.0688,1.0733,1.0748,1.0782,1.0804,1.082,1.0847,1.0869,1.09,1.0915,1.0951,1.0971,1.1,1.1012,1.0993,1.1073,1.1049,1.1082,1.1082,1.1099,1.1098,1.1185,1.1111,1.111,1.111,1.111,0,1.0696,1.0736,1.0753,1.0781,1.0826,1.0834,1.088,1.0895,1.0919,1.0952,1.0952,1.0983,1.0997,1.1031,1.1041,1.1091,1.1099,1.1108,1.111,1.1109,1.1108,1.1122,1.1119,1.1113,1.1112,1.1112,1.1111,0,1.0751,1.0763,1.0813,1.0842,1.0851,1.0883,1.0909,1.0937,1.095,1.0992,1.1002,1.1023,1.1063,1.1078,1.1127,1.1134,1.1192,1.1191,1.1182,1.1183,1.1216,1.1213,1.1316,1.1331,1.1246,1.1247,1.1247,0,1.079,1.0821,1.0853,1.0875,1.0891,1.0925,1.0948,1.0958,1.0982,1.1018,1.1043,1.1083,1.1116,1.1181,1.1202,1.124,1.124,1.1274,1.1246,1.1244,1.1242,1.1241,1.1245,1.1279,1.128,1.1281,1.1281,0,1.086,1.0865,1.0897,1.0932,1.0959,1.0987,1.1014,1.1032,1.1047,1.1074,1.1115,1.114,1.1191,1.1232,1.1271,1.129,1.1289,1.129,1.13,1.1298,1.1293,1.1298,1.1197,1.1287,1.1287,1.1286,1.1286,1.1286,1.0909,1.0937,1.0964,1.1001,1.1022,1.1048,1.1077,1.1094,1.1128,1.1169,1.1173,1.1218,1.1249,1.1302,1.1323,1.1359,1.135,1.1364,1.1368,1.1371,1.1375,1.1286,1.1366,1.1366,1.1366,1.1366,1.1366,0,1.098,1.0998,1.1031,1.1069,1.1099,1.1094,1.1125,1.115,1.1189,1.1217,1.1249,1.1297,1.1337,1.1362,1.1403,1.1427,1.1428,1.1438,1.1437,1.1441,1.1379,1.1367,1.1437,1.1437,1.1437,1.1437,1.1437,1.1436,1.102,1.1068,1.1077,1.1136,1.1154,1.1196,1.1215,1.124,1.1262,1.1316,1.1349,1.1364,1.1392,1.1435,1.1472,1.1479,1.1494,1.1505,1.1511,1.1453,1.1445,1.1438,1.1427,1.1508,1.1508,1.157,1.1571,1.1571]},{"header":{"parameterUnit":"m.s-1","parameterCategory":1,"la1":30.2991,"la2":30.254,"lo1":-89.0895,"lo2":-89.0444,"dy":0.0017,"dx":0.0017,"nx":28,"ny":28,"refTime":"2024-02-29T09:00:00:Z","depth":0,"parameterNumber":3,"parameterNumberName":"V-component_of_WINDS"},"data":[0,0,0,0,0,0,0,0,0,0,0,0,0,0,0,0,0,0,0,0,0,0,0,0,0,0,0,0,0,0,0,0,0,0,0,0,0,0,0,0,0,0,0,0,0,0,0,0,0,0,0,0,0,0,0,0,0,0,-0.942,-0.9417,0,-0.9106,-0.9102,-0.9098,-0.8991,-0.8993,-0.8994,-0.8995,-0.8652,-0.8642,-0.8632,0,0,0,0,0,0,0,0,0,0,0,0,0,-0.9908,-0.99,-0.9421,-0.9417,-0.9413,-0.9106,-0.9102,-0.9097,-0.8991,-0.8993,-0.8994,-0.8996,-0.8656,-0.8643,-0.8631,0,0,0,0,0,0,0,0,0,0,0,0,0,-0.9655,-0.9897,-0.9421,-0.9323,-0.9311,-0.9107,-0.9102,-0.9096,-0.8991,-0.8993,-0.8995,-0.8997,-0.866,-0.8645,-0.8629,-0.8493,0,0,-0.8582,-0.8575,0,0,0,0,0,0,0,0,-0.9669,-0.9637,-0.9342,-0.933,-0.9316,-0.909,-0.9148,-0.8893,-0.899,-0.9112,-0.8995,-0.8998,-0.8795,-0.8768,-0.8704,-0.8477,-0.8462,-0.858,-0.8571,-0.8564,-0.856,0,0,0,0,0,0,0,-0.9687,-0.965,-0.9295,-0.9337,-0.9322,-0.9288,-0.9254,-0.9099,-0.8945,-0.9101,-0.9093,-0.9058,-0.8788,-0.872,-0.8695,-0.8457,-0.8581,-0.8567,-0.8557,-0.8551,-0.8098,-0.8095,0,0,0,0,0,0,-0.9724,-0.9665,-0.9305,-0.9286,-0.9502,-0.9278,-0.924,-0.916,-0.8947,-0.8917,-0.9057,-0.9055,-0.8745,-0.8714,-0.8683,-0.8507,-0.8564,-0.855,-0.8541,-0.81,-0.8097,-0.8094,0,0,0,0,0,0,-0.9735,-0.9693,-0.9318,-0.9473,-0.9423,-0.9267,-0.9179,-0.9153,-0.9085,-0.8914,-0.8883,-0.9017,-0.8745,-0.8705,-0.8542,-0.8494,-0.8543,-0.8528,-0.8103,-0.8099,-0.8096,-0.8157,0,0,0,0,0,0,-0.975,-0.9698,-0.965,-0.9473,-0.9415,-0.9189,-0.9176,-0.9145,-0.9061,-0.9054,-0.8868,-0.8838,-0.8744,-0.8566,-0.8526,-0.8473,-0.8516,-0.8107,-0.8102,-0.8097,-0.8158,-0.8155,-0.8153,0,0,0,0,0,-0.9767,-0.9675,-0.9648,-0.9605,-0.9353,-0.9186,-0.9152,-0.9052,-0.9058,-0.9004,-0.8894,-0.8844,-0.8506,-0.855,-0.8504,-0.8446,-0.8109,-0.8103,-0.8097,-0.8159,-0.8156,-0.8153,0,0,0,0,0,0,-0.9843,-0.9651,-0.9618,-0.9468,-0.9345,-0.9169,-0.9099,-0.9051,-0.8919,-0.8918,-0.8792,-0.875,-0.8596,-0.8504,-0.8556,-0.8301,-0.8304,-0.8289,-0.8367,-0.8362,-0.836,-0.8384,-0.8503,0,0,0,0,0,-0.9844,-0.9732,-0.9566,-0.9449,-0.939,-0.9256,-0.9179,-0.9113,-0.8977,-0.8923,-0.8801,-0.8666,-0.8528,-0.844,-0.8305,-0.8145,-0.8099,-0.8082,-0.8079,-0.8078,-0.8065,-0.7969,-0.7959,-0.8074,-0.8074,-0.8074,0,0,-0.9841,-0.9722,-0.9657,-0.9461,-0.9359,-0.9238,-0.9212,-0.9086,-0.8994,-0.8901,-0.8742,-0.8647,-0.8487,-0.8325,-0.8247,-0.8243,-0.8023,-0.807,-0.807,-0.8058,-0.7962,-0.7951,-0.7942,-0.807,-0.8071,-0.8071,0,0,-0.9775,-0.9676,-0.9567,-0.9465,-0.9312,-0.9223,-0.9197,-0.9028,-0.8964,-0.8803,-0.873,-0.8614,-0.8382,-0.8271,-0.8184,-0.8075,-0.8023,-0.8034,-0.8018,-0.7927,-0.7918,-0.7909,-0.7867,-0.7853,-0.8022,-0.8022,-0.8022,0,-0.9788,-0.9612,-0.9514,-0.9393,-0.9307,-0.9225,-0.9109,-0.9013,-0.882,-0.8759,-0.876,-0.8466,-0.8353,-0.8162,-0.8136,-0.8069,-0.803,-0.8053,-0.7928,-0.7918,-0.7908,-0.7867,-0.7851,-0.8024,-0.8024,-0.8024,-0.8023,0,-0.9635,-0.9513,-0.9442,-0.9266,-0.9171,-0.9053,-0.8931,-0.8845,-0.8787,-0.8696,-0.8529,-0.8391,-0.8225,-0.8175,-0.8114,-0.7973,-0.7976,-0.7955,-0.7954,-0.7902,-0.786,-0.7843,-0.8027,-0.8026,-0.8026,-0.8025,0,0,-0.9606,-0.938,-0.9355,-0.9273,-0.9098,-0.8998,-0.8874,-0.8718,-0.8646,-0.8515,-0.8403,-0.8209,-0.8188,-0.8089,-0.8014,-0.7934,-0.7853,-0.792,-0.7915,-0.791,-0.7685,-0.7701,-0.7685,-0.7818,-0.7815,-0.7812,-0.7697,0,-0.9515,-0.9299,-0.9206,-0.9028,-0.8911,-0.883,-0.8721,-0.8598,-0.8509,-0.8391,-0.8289,-0.8153,-0.8137,-0.8076,-0.7994,-0.7881,-0.7805,-0.7888,-0.7706,-0.7701,-0.7748,-0.7663,-0.768,-0.7578,-0.7681,-0.7678,-0.7676,0,-0.9381,-0.9257,-0.9069,-0.8908,-0.8855,-0.8759,-0.8608,-0.8499,-0.8354,-0.8295,-0.8186,-0.8115,-0.7974,-0.7986,-0.7786,-0.7845,-0.7764,-0.7697,-0.769,-0.7667,-0.7684,-0.7635,-0.7544,-0.7528,-0.7649,-0.7652,-0.7653,0,-0.9376,-0.9161,-0.9021,-0.8953,-0.8762,-0.8696,-0.8611,-0.847,-0.8382,-0.8247,-0.8187,-0.8036,-0.7951,-0.7832,-0.772,-0.774,-0.7529,-0.7532,-0.747,-0.7473,-0.7427,-0.7431,-0.732,-0.7381,-0.7381,-0.7381,-0.7381,0,-0.9283,-0.917,-0.9016,-0.893,-0.8799,-0.8691,-0.8562,-0.847,-0.8346,-0.8234,-0.8153,-0.8048,-0.7908,-0.7784,-0.7694,-0.754,-0.7502,-0.7445,-0.7422,-0.7451,-0.7458,-0.7395,-0.7398,-0.7377,-0.7378,-0.7379,-0.7379,0,-0.9255,-0.9148,-0.8989,-0.8822,-0.8777,-0.8688,-0.8541,-0.845,-0.8358,-0.8218,-0.8178,-0.803,-0.788,-0.7757,-0.7558,-0.7497,-0.7335,-0.731,-0.7386,-0.7373,-0.7317,-0.7323,-0.7158,-0.7129,-0.7214,-0.7213,-0.7213,0,-0.9202,-0.9114,-0.8939,-0.8863,-0.8782,-0.8658,-0.8569,-0.8457,-0.8367,-0.8196,-0.8124,-0.7969,-0.7839,-0.7601,-0.7471,-0.7317,-0.7285,-0.7239,-0.7261,-0.7293,-0.7281,-0.7287,-0.7275,-0.7235,-0.7235,-0.7235,-0.7235,0,-0.9117,-0.9069,-0.8948,-0.8808,-0.8706,-0.8588,-0.8468,-0.8407,-0.8272,-0.8173,-0.8022,-0.7922,-0.7721,-0.7566,-0.7399,-0.7303,-0.7243,-0.7229,-0.7206,-0.7233,-0.728,-0.7251,-0.7377,-0.7233,-0.7233,-0.7233,-0.7233,-0.7233,-0.9072,-0.899,-0.8855,-0.8721,-0.8621,-0.851,-0.8417,-0.8315,-0.8189,-0.8022,-0.7962,-0.7805,-0.7658,-0.7429,-0.7333,-0.7203,-0.7197,-0.7164,-0.7155,-0.7148,-0.7151,-0.7304,-0.7172,-0.7172,-0.7172,-0.7172,-0.7172,0,-0.8981,-0.8891,-0.8771,-0.8608,-0.8501,-0.8464,-0.8327,-0.8239,-0.8105,-0.7977,-0.7853,-0.7676,-0.7525,-0.7385,-0.7225,-0.7148,-0.7117,-0.711,-0.7112,-0.709,-0.7167,-0.7202,-0.7138,-0.7138,-0.7138,-0.7138,-0.7138,-0.7138,-0.8922,-0.878,-0.8716,-0.8521,-0.8428,-0.8281,-0.8206,-0.8101,-0.7998,-0.7808,-0.7685,-0.7597,-0.7461,-0.7291,-0.7149,-0.711,-0.7053,-0.7053,-0.7007,-0.7081,-0.7086,-0.709,-0.7122,-0.7043,-0.7043,-0.6941,-0.694,-0.6939]}]]